Showing default

YAOGAN-30 F, 43030

Orbit data source: Space-Track

YAOGAN-30 F, 43030 is a payload satellite owned by PLA SSF (CN) in LEO that was launched on Fri, 24 Nov 2017 UTC via a CHANG ZHENG 2C launch vehicle from the Xichang Space Center, China (XSC). Payload-class satellites include a variety of spacecraft equipped with specific instruments for various scientific and technological missions. These include communications satellites like Starlink; space stations such as the ISS; scientific satellites like the Hubble; Earth observation satellites from companies like Planet Labs, Umbra, and HawkEye 360; GPS; miniature CubeSats for education and research; and military/defense satellites.

Loading next visibility...
Identifier
43030, 2017-075C
Orbit
LEO
Last TLE update
15 hours ago
Origin
Manufacturer
SECM
Mission
Operational Defense Sigint
Bus & Motor
Unknown
Mass
~500 kg wet, ~500 kg dry
Launch date (UTC)
2017-11-24 (7 years ago)
Launch vehicle
CHANG ZHENG 2C
Launch site
Xichang Space Center, China (XSC)
Object type
Payload
Rocket body
Debris
Shape & HBR
Box + 2 Pan, 1 m
Radar Cross Section
0.446 m², Large (>1 m²)

Expand to show TLE details & history

TLE from 15 hours ago
0 YAOGAN-30 F
1 43030U 17075C   25128.64928668  .00003516  00000-0  28074-3 0  9996
2 43030  34.9943 210.4354 0001331 135.2575 224.8239 14.99803774406573
Epoch: 2025-05-08T15:34Z
Definitive object data (Epoch: 2025-05-08T15:34:58.369Z)
Latitude
-0.00005°
Longitude
109.97537°
Altitude
567.075 km
Speed
7.579 km/s
True Right ascension
14h 01m 44s
True Declination
0° 00' 00"
Sunlit
Object was in full shadow at TLE epoch
Visualization TLE readout
Latitude
19.86711°
Longitude
-104.70764°
Altitude
565.048 km
Speed
7.583 km/s
Apparent Right ascension
01h 00m 12s
Apparent Declination
-9° 16' 31"
Sunlit
Object is in daylight
Visualization observer readout
Local Sidereal Time
14:44:49
Azimuth
44.36° NE
Elevation
-51.525°
Doppler factor
1
Orbital elements
Apogee altitude
571.645 km
Perigee altitude
569.795 km
Semi-major axis
6,948.857 km
Eccentricity
0.0001331
Inclination
34.9943°
RAAN
210.4354°
Arg. of periapsis
135.2575°
True anomaly
224.81315°
Mean anomaly
224.8239°
Eccentric anomaly
224.81852°
Mean motion
3.74691 °/min
BSTAR
0.00028074
Orbital period
96.08 mins
Loading maneuver chart data...
Loading SW <> Apogee altitude chart data...
Loading historical data...
Loading historical data...
Loading historical data...
Loading historical data...
Loading historical data...
Loading historical data...
Loading historical data...
Other satellites on launch #75 in the year 2017 (2017-11-24 UTC)

YAOGAN-30 F Visibility forecast

Observer location: undefined°, undefined°

Span
Click to sort rows by Start time (UTC) header in descending order
Start Az.
Max El. time (UTC)
Max El. Az.
Max El.
End time (UTC)
End Az.
6 mins2025-05-09 09:23:57.797Z212.173° SW2025-05-09 09:26:57.797Z161.033° S22.791°2025-05-09 09:29:57.797Z110.119° ESE
7 mins2025-05-09 11:04:57.797Z241.11° WSW2025-05-09 11:07:57.797Z176.356° S33.614°2025-05-09 11:11:57.797Z105.818° ESE
5 mins2025-05-09 12:46:57.797Z241.443° WSW2025-05-09 12:48:57.797Z194.837° SSW29.359°2025-05-09 12:51:57.797Z133.301° SE
|